| time (UTC) | temp C | wind direction | speed KPH | gust KPH | rain 1hr cm | rain 24hr cm | rain mn cm | humidity % | barometer mb |
| 20260906093002 | 25 | 158 | 0.0 | 0.0 | 0.00 | 0.00 | 0.00 | 81 | 1012.5 |
| 20260906091402 | 26 | 225 | 0.0 | 0.0 | 0.00 | 0.00 | 0.00 | 81 | 1012.5 |
| 20260906090302 | 26 | 180 | 0.0 | 0.0 | 0.00 | 0.00 | 0.00 | 81 | 1012.5 |
| 20260906085002 | 26 | 270 | 0.0 | 0.0 | 0.00 | 0.00 | 0.00 | 81 | 1012.9 |
| 20260906083802 | 26 | 225 | 0.0 | 0.0 | 0.00 | 0.00 | 0.00 | 81 | 1012.5 |
| 20260906082602 | 26 | 225 | 0.0 | 0.0 | 0.00 | 0.00 | 0.00 | 81 | 1012.5 |
| 20260906081502 | 26 | 203 | 0.0 | 1.6 | 0.00 | 0.00 | 0.00 | 81 | 1012.5 |
| 20260906080402 | 26 | 203 | 0.0 | 1.6 | 0.00 | 0.00 | 0.00 | 81 | 1012.5 |
| 20260906074103 | 26 | 225 | 0.0 | 3.2 | 0.00 | 0.00 | 0.00 | 81 | 1012.2 |
| 20260906072802 | 26 | 270 | 0.0 | 4.8 | 0.00 | 0.00 | 0.00 | 81 | 1012.2 |
| 20260906071602 | 26 | 180 | 0.0 | 1.6 | 0.00 | 0.00 | 0.00 | 81 | 1012.5 |
| 20260906065202 | 26 | 248 | 0.0 | 3.2 | 0.00 | 0.00 | 0.00 | 81 | 1012.5 |
| 20260906064102 | 26 | 180 | 3.2 | 3.2 | 0.00 | 0.00 | 0.00 | 81 | 1012.5 |
| 20260906063002 | 26 | 248 | 0.0 | 4.8 | 0.00 | 0.00 | 0.00 | 81 | 1012.5 |
| 20260906061902 | 27 | 180 | 0.0 | 0.0 | 0.00 | 0.00 | 0.00 | 81 | 1012.9 |
| 20260906054402 | 27 | 225 | 0.0 | 1.6 | 0.00 | 0.00 | 0.00 | 80 | 1012.9 |
| 20260906053401 | 27 | 248 | 1.6 | 1.6 | 0.00 | 0.00 | 0.00 | 80 | 1012.5 |
| 20260906052305 | 27 | 270 | 1.6 | 3.2 | 0.00 | 0.00 | 0.00 | 80 | 1012.5 |
| 20260906051202 | 27 | 225 | 4.8 | 4.8 | 0.00 | 0.00 | 0.00 | 80 | 1012.5 |
| 20260906045902 | 27 | 225 | 1.6 | 3.2 | 0.00 | 0.00 | 0.00 | 80 | 1012.9 |
| 20260906044803 | 27 | 270 | 1.6 | 3.2 | 0.00 | 0.00 | 0.00 | 79 | 1012.9 |
| 20260906043702 | 27 | 248 | 1.6 | 3.2 | 0.00 | 0.00 | 0.00 | 78 | 1012.9 |
| 20260906042604 | 27 | 225 | 1.6 | 3.2 | 0.00 | 0.00 | 0.00 | 78 | 1012.9 |
| 20260906041602 | 27 | 248 | 0.0 | 3.2 | 0.00 | 0.00 | 0.00 | 78 | 1012.9 |
| 20260906040502 | 28 | 225 | 0.0 | 3.2 | 0.00 | 0.00 | 0.00 | 78 | 1012.9 |
| 20260906035402 | 28 | 225 | 0.0 | 3.2 | 0.00 | 0.00 | 0.00 | 78 | 1012.9 |
| 20260906034302 | 28 | 270 | 0.0 | 0.0 | 0.00 | 0.00 | 0.00 | 78 | 1012.9 |
| 20260906031803 | 28 | 203 | 0.0 | 0.0 | 0.00 | 0.00 | 0.00 | 78 | 1012.5 |
| 20260906030802 | 28 | 248 | 0.0 | 0.0 | 0.00 | 0.00 | 0.00 | 76 | 1012.5 |
| 20260906025702 | 28 | 248 | 1.6 | 3.2 | 0.00 | 0.00 | 0.00 | 76 | 1012.5 |
| 20260906024602 | 28 | 225 | 3.2 | 3.2 | 0.00 | 0.00 | 0.00 | 76 | 1012.2 |
| 20260906023503 | 28 | 180 | 1.6 | 1.6 | 0.00 | 0.00 | 0.00 | 76 | 1011.5 |
| 20260906022402 | 28 | 270 | 1.6 | 3.2 | 0.00 | 0.00 | 0.00 | 76 | 1011.9 |
| 20260906021202 | 28 | 270 | 0.0 | 0.0 | 0.00 | 0.00 | 0.00 | 75 | 1011.5 |
| 20260906020103 | 29 | 180 | 1.6 | 3.2 | 0.00 | 0.00 | 0.00 | 75 | 1011.5 |
| 20260906015002 | 29 | 248 | 3.2 | 3.2 | 0.00 | 0.00 | 0.00 | 75 | 1011.5 |
| 20260906013902 | 29 | 225 | 3.2 | 3.2 | 0.00 | 0.00 | 0.00 | 74 | 1011.2 |
| 20260906012702 | 30 | 203 | 0.0 | 1.6 | 0.00 | 0.00 | 0.00 | 73 | 1011.2 |
| 20260906010503 | 30 | 225 | 0.0 | 1.6 | 0.00 | 0.00 | 0.00 | 70 | 1010.8 |
| 20260906004203 | 31 | 203 | 3.2 | 3.2 | 0.00 | 0.00 | 0.00 | 68 | 1010.8 |
| 20260906003102 | 31 | 225 | 1.6 | 3.2 | 0.00 | 0.00 | 0.00 | 66 | 1011.2 |
| 20260906001902 | 31 | 180 | 0.0 | 1.6 | 0.00 | 0.00 | 0.00 | 65 | 1010.8 |
| 20260906000802 | 32 | 45 | 3.2 | 8.0 | 0.00 | 0.00 | 0.00 | 65 | 1010.8 |
| 20260905235602 | 32 | 0 | 1.6 | 3.2 | 0.00 | 0.00 | 0.00 | 63 | 1010.5 |
| 20260905234502 | 32 | 180 | 3.2 | 4.8 | 0.00 | 0.00 | 0.00 | 61 | 1010.5 |
| 20260905233402 | 33 | 158 | 1.6 | 4.8 | 0.00 | 0.00 | 0.00 | 61 | 1010.5 |
| 20260905232305 | 33 | 203 | 1.6 | 1.6 | 0.00 | 0.00 | 0.00 | 60 | 1010.5 |
| 20260905231103 | 33 | 203 | 3.2 | 4.8 | 0.00 | 0.00 | 0.00 | 60 | 1010.8 |
| 20260905230003 | 35 | 203 | 0.0 | 1.6 | 0.00 | 0.00 | 0.00 | 59 | 1010.8 |
| 20260905224802 | 35 | 270 | 1.6 | 3.2 | 0.00 | 0.00 | 0.00 | 58 | 1010.5 |
| 20260905223602 | 35 | 113 | 4.8 | 4.8 | 0.00 | 0.00 | 0.00 | 56 | 1010.5 |
| 20260905222502 | 35 | 180 | 1.6 | 3.2 | 0.00 | 0.00 | 0.00 | 55 | 1010.5 |
| 20260905221403 | 35 | 158 | 1.6 | 4.8 | 0.00 | 0.00 | 0.00 | 55 | 1010.2 |
| 20260905220202 | 34 | 180 | 3.2 | 6.4 | 0.00 | 0.00 | 0.00 | 56 | 1009.8 |
| 20260905215103 | 34 | 180 | 3.2 | 8.0 | 0.00 | 0.00 | 0.00 | 55 | 1010.2 |
| 20260905214003 | 35 | 45 | 8.0 | 9.7 | 0.00 | 0.00 | 0.00 | 55 | 1010.2 |
| 20260905211702 | 33 | 270 | 3.2 | 3.2 | 0.00 | 0.00 | 0.00 | 56 | 1010.5 |
| 20260905205502 | 33 | 225 | 3.2 | 6.4 | 0.00 | 0.00 | 0.00 | 55 | 1010.8 |
| 20260905204402 | 33 | 270 | 1.6 | 4.8 | 0.00 | 0.00 | 0.00 | 55 | 1011.2 |
| 20260905203202 | 33 | 180 | 4.8 | 6.4 | 0.00 | 0.00 | 0.00 | 55 | 1011.2 |
| 20260905202102 | 32 | 225 | 3.2 | 6.4 | 0.00 | 0.00 | 0.00 | 56 | 1011.5 |
| 20260905201002 | 32 | 293 | 4.8 | 6.4 | 0.00 | 0.00 | 0.00 | 55 | 1011.9 |
| 20260905195902 | 32 | 270 | 4.8 | 8.0 | 0.00 | 0.00 | 0.00 | 56 | 1012.2 |
| 20260905194702 | 32 | 248 | 3.2 | 8.0 | 0.00 | 0.00 | 0.00 | 59 | 1012.5 |
| 20260905192402 | 31 | 225 | 4.8 | 8.0 | 0.00 | 0.00 | 0.00 | 58 | 1012.5 |
| 20260905190202 | 31 | 248 | 4.8 | 6.4 | 0.00 | 0.00 | 0.00 | 59 | 1013.2 |
| 20260905185102 | 31 | 225 | 8.0 | 12.9 | 0.00 | 0.00 | 0.00 | 63 | 1013.2 |
| 20260905184002 | 31 | 270 | 4.8 | 9.7 | 0.00 | 0.00 | 0.00 | 63 | 1013.5 |
| 20260905182902 | 31 | 270 | 4.8 | 6.4 | 0.00 | 0.00 | 0.00 | 66 | 1013.5 |
| 20260905181702 | 31 | 270 | 6.4 | 6.4 | 0.00 | 0.00 | 0.00 | 68 | 1013.5 |
| 20260905180602 | 30 | 270 | 3.2 | 8.0 | 0.00 | 0.00 | 0.00 | 70 | 1013.9 |
| 20260905175502 | 30 | 0 | 16.1 | 16.1 | 0.00 | 0.00 | 0.00 | 71 | 1013.9 |
| 20260905174402 | 29 | 248 | 3.2 | 11.3 | 0.00 | 0.00 | 0.00 | 73 | 1013.9 |
| 20260905173303 | 29 | 270 | 6.4 | 11.3 | 0.00 | 0.00 | 0.00 | 74 | 1013.9 |
| 20260905172202 | 28 | 293 | 11.3 | 16.1 | 0.00 | 0.00 | 0.00 | 75 | 1013.9 |
| 20260905171102 | 28 | 135 | 6.4 | 9.7 | 0.00 | 0.00 | 0.00 | 74 | 1013.9 |
| 20260905170003 | 29 | 180 | 16.1 | 16.1 | 0.00 | 0.00 | 0.00 | 73 | 1013.9 |
| 20260905165003 | 29 | 225 | 6.4 | 9.7 | 0.00 | 0.00 | 0.00 | 73 | 1013.9 |
| 20260905163902 | 29 | 293 | 6.4 | 8.0 | 0.00 | 0.00 | 0.00 | 71 | 1014.2 |
| 20260905162902 | 28 | 248 | 4.8 | 6.4 | 0.00 | 0.00 | 0.00 | 74 | 1013.9 |
| 20260905160702 | 28 | 203 | 6.4 | 9.7 | 0.00 | 0.00 | 0.00 | 75 | 1013.9 |
| 20260905155602 | 29 | 203 | 3.2 | 4.8 | 0.00 | 0.00 | 0.00 | 70 | 1013.5 |
| 20260905154402 | 28 | 248 | 3.2 | 6.4 | 0.00 | 0.00 | 0.00 | 75 | 1013.2 |
| 20260905153302 | 28 | 225 | 6.4 | 6.4 | 0.00 | 0.00 | 0.00 | 73 | 1013.5 |
| 20260905152302 | 28 | 225 | 3.2 | 4.8 | 0.00 | 0.00 | 0.00 | 74 | 1013.2 |
| 20260905143502 | 28 | 203 | 4.8 | 4.8 | 0.00 | 0.00 | 0.00 | 74 | 1012.5 |
| 20260905142402 | 28 | 225 | 0.0 | 1.6 | 0.00 | 0.00 | 0.00 | 75 | 1012.2 |
| 20260905141302 | 28 | 270 | 3.2 | 3.2 | 0.00 | 0.00 | 0.00 | 75 | 1012.2 |
| 20260905140202 | 27 | 90 | 0.0 | 0.0 | 0.00 | 0.00 | 0.00 | 75 | 1012.2 |
| 20260905135102 | 27 | 158 | 0.0 | 3.2 | 0.00 | 0.00 | 0.00 | 78 | 1011.5 |
| 20260905134003 | 26 | 203 | 0.0 | 0.0 | 0.00 | 0.00 | 0.00 | 81 | 1011.9 |
| 20260905132902 | 25 | 225 | 0.0 | 0.0 | 0.00 | 0.00 | 0.00 | 81 | 1012.2 |
| 20260905131803 | 25 | 203 | 0.0 | 0.0 | 0.00 | 0.00 | 0.00 | 81 | 1011.9 |
| 20260905130703 | 24 | 225 | 0.0 | 0.0 | 0.00 | 0.00 | 0.00 | 83 | 1011.5 |
| 20260905125702 | 23 | 248 | 0.0 | 0.0 | 0.00 | 0.00 | 0.00 | 83 | 1011.5 |
| 20260905124502 | 23 | 248 | 0.0 | 0.0 | 0.00 | 0.00 | 0.00 | 83 | 1011.5 |
| 20260905123302 | 23 | 203 | 0.0 | 0.0 | 0.00 | 0.00 | 0.00 | 83 | 1011.2 |
| 20260905122203 | 23 | 203 | 0.0 | 0.0 | 0.00 | 0.00 | 0.00 | 83 | 1011.2 |
| 20260905121102 | 23 | 248 | 0.0 | 0.0 | 0.00 | 0.00 | 0.00 | 81 | 1011.2 |
| 20260905115702 | 23 | 270 | 0.0 | 0.0 | 0.00 | 0.00 | 0.00 | 81 | 1010.8 |
| 20260905114602 | 23 | 180 | 0.0 | 0.0 | 0.00 | 0.00 | 0.00 | 83 | 1010.5 |
| 20260905113202 | 23 | 248 | 0.0 | 0.0 | 0.00 | 0.00 | 0.00 | 83 | 1011.2 |
| 20260905105802 | 24 | 180 | 0.0 | 0.0 | 0.00 | 0.00 | 0.00 | 81 | 1010.5 |
| 20260905104602 | 23 | 225 | 0.0 | 0.0 | 0.00 | 0.00 | 0.00 | 83 | 1010.8 |
| 20260905103403 | 23 | 225 | 0.0 | 0.0 | 0.00 | 0.00 | 0.00 | 83 | 1010.8 |
| 20260905102305 | 24 | 225 | 0.0 | 1.6 | 0.00 | 0.00 | 0.00 | 83 | 1010.5 |
| 20260905101202 | 24 | 248 | 0.0 | 0.0 | 0.00 | 0.00 | 0.00 | 81 | 1010.8 |
| 20260905095002 | 25 | 225 | 0.0 | 0.0 | 0.00 | 0.00 | 0.00 | 80 | 1010.5 |
| 20260905093902 | 25 | 248 | 3.2 | 3.2 | 0.00 | 0.00 | 0.00 | 80 | 1010.5 |